When you browse on this site, cookies collect data to enhance your experience and personalize the content and advertising you see.
Visit our Privacy Policy to learn more. By continuing to use the site, you agree to this use of cookies and data.
  • In Czech Republic
  • List of Countries
  • For 7 days
  • Water Temperature
  • Weather Map
  • Weather Widgets
  • user-avatar
    Login

    Hourly Weather Heidelberg

    Today, 9 April, Thursday

    Time Temperature Precipitation Wind Pressure Humidity
    00:00 +12°C° 0 mm 0 mps 737 mmHg 53%
    01:00 +12°C° 0 mm 0 mps 737 mmHg 50%
    02:00 +11°C° 0 mm 0 mps 737 mmHg 52%
    03:00 +11°C° 0 mm 0 mps 737 mmHg 53%
    04:00 +10°C° 0 mm 0 mps 737 mmHg 55%
    05:00 +11°C° 0 mm 0 mps 737 mmHg 56%
    06:00 +11°C° 0 mm 0 mps 737 mmHg 57%
    07:00 +12°C° 0 mm 0 mps 738 mmHg 55%
    08:00 +14°C° 0 mm 0 mps 738 mmHg 51%
    09:00 +16°C° 0 mm 0 mps 738 mmHg 46%
    10:00 +18°C° 0 mm 0 mps 738 mmHg 41%
    11:00 +21°C° 0 mm 1 mps 738 mmHg 38%
    12:00 +22°C° 0 mm 1 mps 738 mmHg 34%
    13:00 +23°C° 0 mm 1 mps 738 mmHg 31%
    14:00 +23°C° 0 mm 1 mps 738 mmHg 31%
    15:00 +23°C° 0 mm 2 mps 738 mmHg 31%
    16:00 +23°C° 0 mm 2 mps 737 mmHg 31%
    17:00 +21°C° 0 mm 2 mps 737 mmHg 36%
    18:00 +19°C° 0 mm 2 mps 737 mmHg 42%
    19:00 +18°C° 0 mm 1 mps 738 mmHg 47%
    20:00 +16°C° 0 mm 1 mps 738 mmHg 50%
    21:00 +16°C° 0 mm 2 mps 738 mmHg 54%
    22:00 +15°C° 0 mm 2 mps 739 mmHg 57%
    23:00 +14°C° 0 mm 2 mps 739 mmHg 62%

    Tomorrow, 10 April, Friday

    Time Temperature Precipitation Wind Pressure Humidity
    00:00 +13°C° 0 mm 2 mps 739 mmHg 67%
    01:00 +13°C° 0 mm 2 mps 739 mmHg 72%
    02:00 +12°C° 0 mm 2 mps 739 mmHg 74%
    03:00 +10°C° 0 mm 2 mps 739 mmHg 76%
    04:00 +10°C° 0 mm 2 mps 738 mmHg 78%
    05:00 +10°C° 0 mm 2 mps 739 mmHg 77%
    06:00 +10°C° 0 mm 2 mps 739 mmHg 77%
    07:00 +10°C° 0 mm 2 mps 739 mmHg 76%
    08:00 +13°C° 0 mm 2 mps 739 mmHg 69%
    09:00 +15°C° 0 mm 2 mps 739 mmHg 62%
    10:00 +17°C° 0 mm 2 mps 739 mmHg 55%
    11:00 +18°C° 0 mm 2 mps 739 mmHg 51%
    12:00 +19°C° 0 mm 2 mps 739 mmHg 47%
    13:00 +20°C° 0 mm 2 mps 739 mmHg 43%
    14:00 +20°C° 0 mm 2 mps 738 mmHg 42%
    15:00 +20°C° 0 mm 2 mps 738 mmHg 41%
    16:00 +20°C° 0 mm 2 mps 738 mmHg 40%
    17:00 +19°C° 0 mm 2 mps 738 mmHg 45%
    18:00 +17°C° 0 mm 2 mps 737 mmHg 51%
    19:00 +16°C° 0 mm 2 mps 737 mmHg 56%
    20:00 +15°C° 0 mm 2 mps 738 mmHg 59%
    21:00 +13°C° 0 mm 2 mps 738 mmHg 62%
    22:00 +12°C° 0 mm 2 mps 739 mmHg 65%
    23:00 +12°C° 0 mm 2 mps 738 mmHg 66%

    Day after tomorrow, 11 April, Saturday

    Time Temperature Precipitation Wind Pressure Humidity
    00:00 +10°C° 0 mm 2 mps 738 mmHg 68%
    01:00 +10°C° 0 mm 1 mps 738 mmHg 69%
    02:00 +10°C° 0 mm 1 mps 738 mmHg 72%
    03:00 +9°C° 0 mm 1 mps 738 mmHg 76%
    04:00 +8°C° 0 mm 2 mps 738 mmHg 79%
    05:00 +8°C° 0 mm 2 mps 739 mmHg 79%
    06:00 +8°C° 0 mm 2 mps 739 mmHg 78%
    07:00 +8°C° 0 mm 2 mps 739 mmHg 78%
    08:00 +10°C° 0 mm 2 mps 739 mmHg 71%
    09:00 +13°C° 0 mm 2 mps 739 mmHg 64%
    10:00 +15°C° 0 mm 2 mps 739 mmHg 56%
    11:00 +17°C° 0 mm 2 mps 739 mmHg 51%
    12:00 +18°C° 0 mm 2 mps 738 mmHg 45%
    13:00 +19°C° 0 mm 2 mps 738 mmHg 39%
    14:00 +20°C° 0 mm 2 mps 738 mmHg 38%
    15:00 +20°C° 0 mm 2 mps 737 mmHg 37%
    16:00 +20°C° 0 mm 2 mps 737 mmHg 36%
    17:00 +18°C° 0 mm 2 mps 737 mmHg 42%
    18:00 +16°C° 0 mm 2 mps 736 mmHg 49%
    19:00 +15°C° 0 mm 2 mps 736 mmHg 56%
    20:00 +14°C° 0 mm 2 mps 736 mmHg 58%
    21:00 +13°C° 0 mm 2 mps 736 mmHg 60%
    22:00 +12°C° 0 mm 1 mps 736 mmHg 62%
    23:00 +11°C° 0 mm 1 mps 736 mmHg 62%

    12 April, Sunday

    Time Temperature Precipitation Wind Pressure Humidity
    00:00 +11°C° 0 mm 1 mps 736 mmHg 63%
    01:00 +11°C° 0 mm 1 mps 736 mmHg 63%
    02:00 +10°C° 0 mm 1 mps 736 mmHg 64%
    03:00 +10°C° 0 mm 1 mps 735 mmHg 64%
    04:00 +9°C° 0 mm 1 mps 735 mmHg 65%
    05:00 +10°C° 0 mm 1 mps 735 mmHg 65%
    06:00 +10°C° 0 mm 1 mps 734 mmHg 66%
    07:00 +11°C° 0 mm 1 mps 734 mmHg 66%
    08:00 +13°C° 0 mm 1 mps 734 mmHg 61%
    09:00 +15°C° 0 mm 1 mps 734 mmHg 56%
    10:00 +18°C° 0 mm 1 mps 733 mmHg 51%
    11:00 +19°C° 0 mm 1 mps 733 mmHg 49%
    12:00 +21°C° 0 mm 1 mps 733 mmHg 47%
    13:00 +22°C° 0 mm 1 mps 732 mmHg 45%
    14:00 +22°C° 0 mm 1 mps 732 mmHg 44%
    15:00 +21°C° 0 mm 2 mps 731 mmHg 43%
    16:00 +21°C° 0 mm 2 mps 731 mmHg 42%
    17:00 +20°C° 0 mm 2 mps 730 mmHg 46%
    18:00 +19°C° 0 mm 1 mps 730 mmHg 51%
    19:00 +18°C° 0 mm 1 mps 730 mmHg 56%
    20:00 +16°C° 0 mm 1 mps 730 mmHg 60%
    21:00 +15°C° 0 mm 1 mps 730 mmHg 63%
    22:00 +14°C° 0 mm 1 mps 730 mmHg 67%
    23:00 +13°C° 0.1 mm 1 mps 730 mmHg 68%

    13 April, Monday

    Time Temperature Precipitation Wind Pressure Humidity
    00:00 +13°C° 0.1 mm 2 mps 730 mmHg 70%
    01:00 +12°C° 0.1 mm 2 mps 730 mmHg 71%
    02:00 +12°C° 0 mm 2 mps 730 mmHg 70%
    03:00 +12°C° 0 mm 2 mps 730 mmHg 68%
    04:00 +12°C° 0 mm 2 mps 730 mmHg 67%
    05:00 +12°C° 0 mm 2 mps 730 mmHg 68%
    06:00 +12°C° 0 mm 2 mps 730 mmHg 69%
    07:00 +12°C° 0 mm 2 mps 730 mmHg 70%
    08:00 +13°C° 0 mm 3 mps 730 mmHg 63%
    09:00 +14°C° 0 mm 3 mps 730 mmHg 56%
    10:00 +17°C° 0 mm 4 mps 730 mmHg 49%
    11:00 +18°C° 0 mm 4 mps 730 mmHg 45%
    12:00 +19°C° 0 mm 4 mps 730 mmHg 42%
    13:00 +20°C° 0 mm 4 mps 729 mmHg 38%
    14:00 +20°C° 0 mm 5 mps 729 mmHg 39%
    15:00 +20°C° 0 mm 5 mps 729 mmHg 40%
    16:00 +20°C° 0 mm 5 mps 729 mmHg 40%
    17:00 +17°C° 0.3 mm 5 mps 729 mmHg 51%
    18:00 +15°C° 0.3 mm 4 mps 729 mmHg 61%
    19:00 +13°C° 0.3 mm 4 mps 729 mmHg 71%
    20:00 +12°C° 0.2 mm 4 mps 730 mmHg 73%
    21:00 +11°C° 0.2 mm 4 mps 731 mmHg 75%
    22:00 +9°C° 0.2 mm 5 mps 732 mmHg 77%
    23:00 +8°C° 0 mm 4 mps 732 mmHg 78%

    14 April, Tuesday

    Time Temperature Precipitation Wind Pressure Humidity
    00:00 +7°C° 0 mm 4 mps 733 mmHg 78%
    01:00 +7°C° 0 mm 3 mps 733 mmHg 78%
    02:00 +5°C° 0 mm 4 mps 733 mmHg 79%
    03:00 +5°C° 0 mm 4 mps 734 mmHg 79%
    04:00 +4°C° 0 mm 4 mps 734 mmHg 79%
    05:00 +2°C° 0 mm 5 mps 734 mmHg 77%
    06:00 +2°C° 0 mm 5 mps 735 mmHg 75%
    07:00 +2°C° 0 mm 5 mps 735 mmHg 73%
    08:00 +3°C° 0 mm 5 mps 735 mmHg 66%
    09:00 +5°C° 0 mm 5 mps 735 mmHg 59%
    10:00 +6°C° 0 mm 5 mps 735 mmHg 52%
    11:00 +8°C° 0 mm 6 mps 735 mmHg 48%
    12:00 +9°C° 0 mm 6 mps 735 mmHg 44%
    13:00 +10°C° 0 mm 6 mps 734 mmHg 40%
    14:00 +10°C° 0 mm 6 mps 734 mmHg 39%
    15:00 +11°C° 0 mm 6 mps 733 mmHg 39%
    16:00 +11°C° 0 mm 6 mps 733 mmHg 38%
    17:00 +10°C° 0 mm 6 mps 733 mmHg 41%
    18:00 +9°C° 0 mm 6 mps 732 mmHg 44%
    19:00 +8°C° 0 mm 5 mps 732 mmHg 47%
    20:00 +7°C° 0 mm 5 mps 732 mmHg 48%
    21:00 +6°C° 0 mm 5 mps 732 mmHg 49%
    22:00 +5°C° 0 mm 5 mps 732 mmHg 50%
    23:00 +3°C° 0 mm 5 mps 732 mmHg 51%
    Show more